| time (UTC) | temp F | wind direction | speed MPH | gust MPH | rain 1hr in | rain 24hr in | rain mn in | humidity % | barometer mb |
| 20260902202204 | 84 | 230 | 1.0 | 3.0 | 0.00 | 0.00 | 0.00 | 63 | |
| 20260902201204 | 84 | 280 | 2.0 | 8.0 | 0.00 | 0.00 | 0.00 | 63 | |
| 20260902200204 | 84 | 273 | 2.0 | 5.0 | 0.00 | 0.00 | 0.00 | 62 | |
| 20260902195204 | 85 | 194 | 1.0 | 5.0 | 0.00 | 0.00 | 0.00 | 61 | |
| 20260902194204 | 84 | 151 | 0.0 | 5.0 | 0.00 | 0.00 | 0.00 | 63 | |
| 20260902193204 | 84 | 265 | 1.0 | 7.0 | 0.00 | 0.00 | 0.00 | 61 | |
| 20260902192203 | 84 | 206 | 2.0 | 6.0 | 0.00 | 0.00 | 0.00 | 60 | |
| 20260902191207 | 85 | 221 | 2.0 | 8.0 | 0.00 | 0.00 | 0.00 | 60 | |
| 20260902190204 | 85 | 221 | 2.0 | 8.0 | 0.00 | 0.00 | 0.00 | 60 | |
| 20260902185205 | 85 | 261 | 2.0 | 7.0 | 0.00 | 0.00 | 0.00 | 60 | |
| 20260902184204 | 85 | 292 | 2.0 | 6.0 | 0.00 | 0.00 | 0.00 | 61 | |
| 20260902183204 | 84 | 150 | 2.0 | 6.0 | 0.00 | 0.00 | 0.00 | 61 | |
| 20260902182204 | 84 | 249 | 2.0 | 8.0 | 0.00 | 0.00 | 0.00 | 60 | |
| 20260902181204 | 85 | 233 | 3.0 | 7.0 | 0.00 | 0.00 | 0.00 | 57 | |
| 20260902180204 | 85 | 233 | 2.0 | 6.0 | 0.00 | 0.00 | 0.00 | 59 | |
| 20260902175203 | 85 | 215 | 1.0 | 7.0 | 0.00 | 0.00 | 0.00 | 60 | |
| 20260902174204 | 84 | 103 | 1.0 | 5.0 | 0.00 | 0.00 | 0.00 | 63 | |
| 20260902173204 | 83 | 224 | 2.0 | 6.0 | 0.00 | 0.00 | 0.00 | 62 | |
| 20260902172203 | 83 | 307 | 1.0 | 6.0 | 0.00 | 0.00 | 0.00 | 64 | |
| 20260902171204 | 82 | 282 | 0.0 | 2.0 | 0.00 | 0.00 | 0.00 | 64 | |
| 20260902170204 | 82 | 220 | 1.0 | 5.0 | 0.00 | 0.00 | 0.00 | 65 | |
| 20260902165204 | 82 | 206 | 0.0 | 2.0 | 0.00 | 0.00 | 0.00 | 66 | |
| 20260902164203 | 81 | 102 | 1.0 | 6.0 | 0.00 | 0.00 | 0.00 | 66 | |
| 20260902163203 | 81 | 225 | 1.0 | 6.0 | 0.00 | 0.00 | 0.00 | 66 | |
| 20260902162204 | 82 | 154 | 1.0 | 5.0 | 0.00 | 0.00 | 0.00 | 65 | |
| 20260902161204 | 81 | 129 | 0.0 | 6.0 | 0.00 | 0.00 | 0.00 | 68 | |
| 20260902160203 | 80 | 99 | 1.0 | 3.0 | 0.00 | 0.00 | 0.00 | 67 | |
| 20260902155204 | 79 | 160 | 0.0 | 3.0 | 0.00 | 0.00 | 0.00 | 69 | |
| 20260902154203 | 79 | 208 | 0.0 | 0.0 | 0.00 | 0.00 | 0.00 | 70 | |
| 20260902153203 | 79 | 208 | 0.0 | 2.0 | 0.00 | 0.00 | 0.00 | 70 | |
| 20260902152204 | 78 | 106 | 0.0 | 1.0 | 0.00 | 0.00 | 0.00 | 69 | |
| 20260902151203 | 78 | 89 | 0.0 | 1.0 | 0.00 | 0.00 | 0.00 | 70 | |
| 20260902150203 | 78 | 95 | 1.0 | 2.0 | 0.00 | 0.00 | 0.00 | 70 | |
| 20260902145204 | 78 | 60 | 0.0 | 5.0 | 0.00 | 0.00 | 0.00 | 70 | |
| 20260902144203 | 77 | 79 | 1.0 | 3.0 | 0.00 | 0.00 | 0.00 | 70 | |
| 20260902143204 | 76 | 95 | 1.0 | 5.0 | 0.00 | 0.00 | 0.00 | 72 | |
| 20260902142203 | 76 | 138 | 1.0 | 6.0 | 0.00 | 0.00 | 0.00 | 73 | |
| 20260902141204 | 76 | 167 | 1.0 | 7.0 | 0.00 | 0.00 | 0.00 | 74 | |
| 20260902140203 | 76 | 98 | 2.0 | 7.0 | 0.00 | 0.00 | 0.00 | 74 | |
| 20260902135204 | 75 | 159 | 1.0 | 5.0 | 0.00 | 0.00 | 0.00 | 76 | |
| 20260902134203 | 74 | 105 | 1.0 | 7.0 | 0.00 | 0.00 | 0.00 | 77 | |
| 20260902133203 | 74 | 112 | 3.0 | 6.0 | 0.00 | 0.00 | 0.00 | 79 | |
| 20260902132204 | 74 | 112 | 1.0 | 5.0 | 0.00 | 0.00 | 0.00 | 80 | |
| 20260902131203 | 74 | 127 | 1.0 | 5.0 | 0.00 | 0.00 | 0.00 | 80 | |
| 20260902130204 | 74 | 146 | 1.0 | 6.0 | 0.00 | 0.00 | 0.00 | 80 | |
| 20260902125203 | 73 | 84 | 3.0 | 7.0 | 0.00 | 0.00 | 0.00 | 80 | |
| 20260902124204 | 73 | 98 | 1.0 | 5.0 | 0.00 | 0.00 | 0.00 | 82 | |
| 20260902123203 | 73 | 127 | 2.0 | 5.0 | 0.00 | 0.00 | 0.00 | 82 | |
| 20260902122203 | 72 | 104 | 2.0 | 6.0 | 0.00 | 0.00 | 0.00 | 83 | |
| 20260902121203 | 72 | 119 | 2.0 | 5.0 | 0.00 | 0.00 | 0.00 | 85 | |
| 20260902120203 | 72 | 163 | 0.0 | 3.0 | 0.00 | 0.00 | 0.00 | 86 | |
| 20260902115203 | 72 | 140 | 1.0 | 3.0 | 0.00 | 0.00 | 0.00 | 86 | |
| 20260902114203 | 72 | 125 | 1.0 | 3.0 | 0.00 | 0.00 | 0.00 | 86 | |
| 20260902113204 | 72 | 117 | 1.0 | 3.0 | 0.00 | 0.00 | 0.00 | 87 | |
| 20260902112203 | 72 | 103 | 1.0 | 3.0 | 0.00 | 0.00 | 0.00 | 87 | |
| 20260902111204 | 72 | 148 | 0.0 | 2.0 | 0.00 | 0.00 | 0.00 | 87 | |
| 20260902110208 | 72 | 183 | 1.0 | 2.0 | 0.00 | 0.00 | 0.00 | 86 | |
| 20260902105208 | 73 | 196 | 1.0 | 2.0 | 0.00 | 0.00 | 0.00 | 84 | |
| 20260902104203 | 73 | 15 | 2.0 | 3.0 | 0.00 | 0.00 | 0.00 | 82 | |
| 20260902103204 | 73 | 342 | 1.0 | 3.0 | 0.00 | 0.00 | 0.00 | 80 | |
| 20260902102203 | 74 | 346 | 0.0 | 2.0 | 0.00 | 0.00 | 0.00 | 81 | |
| 20260902101204 | 74 | 334 | 2.0 | 6.0 | 0.00 | 0.00 | 0.00 | 80 | |
| 20260902100203 | 74 | 355 | 1.0 | 5.0 | 0.00 | 0.00 | 0.00 | 81 | |
| 20260902095203 | 73 | 287 | 2.0 | 7.0 | 0.00 | 0.00 | 0.00 | 82 | |
| 20260902094203 | 73 | 268 | 0.0 | 0.0 | 0.00 | 0.00 | 0.00 | 86 | |
| 20260902093203 | 73 | 268 | 0.0 | 1.0 | 0.00 | 0.00 | 0.00 | 85 | |
| 20260902092203 | 73 | 191 | 0.0 | 1.0 | 0.00 | 0.00 | 0.00 | 84 | |
| 20260902091203 | 74 | 88 | 0.0 | 0.0 | 0.00 | 0.00 | 0.00 | 84 | |
| 20260902090204 | 74 | 88 | 0.0 | 2.0 | 0.00 | 0.00 | 0.00 | 83 | |
| 20260902085204 | 74 | 62 | 2.0 | 2.0 | 0.00 | 0.00 | 0.00 | 83 | |
| 20260902084203 | 74 | 188 | 0.0 | 2.0 | 0.00 | 0.00 | 0.00 | 82 | |
| 20260902083203 | 74 | 30 | 0.0 | 2.0 | 0.00 | 0.00 | 0.00 | 82 | |
| 20260902082203 | 74 | 307 | 1.0 | 7.0 | 0.00 | 0.00 | 0.00 | 82 | |
| 20260902081204 | 75 | 11 | 2.0 | 2.0 | 0.00 | 0.00 | 0.00 | 81 | |
| 20260902080204 | 74 | 235 | 0.0 | 2.0 | 0.00 | 0.00 | 0.00 | 81 | |
| 20260902075203 | 74 | 247 | 1.0 | 2.0 | 0.00 | 0.00 | 0.00 | 82 | |
| 20260902074203 | 74 | 308 | 0.0 | 5.0 | 0.00 | 0.00 | 0.00 | 83 | |
| 20260902073204 | 74 | 266 | 1.0 | 5.0 | 0.00 | 0.00 | 0.00 | 83 | |
| 20260902072203 | 74 | 273 | 0.0 | 6.0 | 0.00 | 0.00 | 0.00 | 83 | |
| 20260902071204 | 75 | 244 | 0.0 | 5.0 | 0.00 | 0.00 | 0.00 | 82 | |
| 20260902070212 | 74 | 230 | 2.0 | 5.0 | 0.00 | 0.00 | 0.00 | 83 | |
| 20260902052205 | 74 | 239 | 0.0 | 0.0 | 0.00 | 0.00 | 0.00 | 77 | |
| 20260902051204 | 74 | 239 | 0.0 | 0.0 | 0.00 | 0.00 | 0.00 | 76 | |
| 20260902050204 | 74 | 239 | 0.0 | 0.0 | 0.00 | 0.00 | 0.00 | 77 | |
| 20260902045204 | 74 | 239 | 0.0 | 0.0 | 0.00 | 0.00 | 0.00 | 77 | |
| 20260902044205 | 74 | 242 | 0.0 | 1.0 | 0.00 | 0.00 | 0.00 | 78 | |
| 20260902043204 | 74 | 274 | 0.0 | 0.0 | 0.00 | 0.00 | 0.00 | 77 | |
| 20260902042204 | 74 | 274 | 0.0 | 1.0 | 0.00 | 0.00 | 0.00 | 76 | |
| 20260902041205 | 74 | 256 | 0.0 | 0.0 | 0.00 | 0.00 | 0.00 | 76 | |
| 20260902040204 | 74 | 256 | 0.0 | 0.0 | 0.00 | 0.00 | 0.00 | 75 | |
| 20260902035204 | 74 | 256 | 0.0 | 0.0 | 0.00 | 0.00 | 0.00 | 75 | |
| 20260902034205 | 75 | 256 | 0.0 | 0.0 | 0.00 | 0.00 | 0.00 | 75 | |
| 20260902033204 | 75 | 256 | 0.0 | 0.0 | 0.00 | 0.00 | 0.00 | 73 | |
| 20260902032204 | 75 | 256 | 0.0 | 1.0 | 0.00 | 0.00 | 0.00 | 72 | |
| 20260902031204 | 75 | 302 | 0.0 | 0.0 | 0.00 | 0.00 | 0.00 | 72 | |
| 20260902030208 | 75 | 302 | 0.0 | 1.0 | 0.00 | 0.00 | 0.00 | 72 | |
| 20260902025204 | 75 | 196 | 1.0 | 3.0 | 0.00 | 0.00 | 0.00 | 72 | |
| 20260902024204 | 74 | 254 | 0.0 | 1.0 | 0.00 | 0.00 | 0.00 | 75 | |
| 20260902023205 | 73 | 325 | 0.0 | 0.0 | 0.00 | 0.00 | 0.00 | 77 | |
| 20260902022203 | 71 | 325 | 0.0 | 0.0 | 0.00 | 0.00 | 0.00 | 77 | |
| 20260902021204 | 72 | 325 | 0.0 | 0.0 | 0.00 | 0.00 | 0.00 | 77 | |
| 20260902020204 | 72 | 325 | 0.0 | 0.0 | 0.00 | 0.00 | 0.00 | 76 | |
| 20260902015205 | 73 | 325 | 0.0 | 0.0 | 0.00 | 0.00 | 0.00 | 75 | |
| 20260902014204 | 73 | 325 | 0.0 | 0.0 | 0.00 | 0.00 | 0.00 | 75 | |
| 20260902013204 | 74 | 325 | 0.0 | 0.0 | 0.00 | 0.00 | 0.00 | 73 | |
| 20260902012204 | 74 | 325 | 0.0 | 0.0 | 0.00 | 0.00 | 0.00 | 74 | |
| 20260902011204 | 74 | 325 | 0.0 | 0.0 | 0.00 | 0.00 | 0.00 | 73 | |
| 20260902010204 | 74 | 325 | 0.0 | 0.0 | 0.00 | 0.00 | 0.00 | 73 | |
| 20260902005204 | 75 | 325 | 0.0 | 0.0 | 0.00 | 0.00 | 0.00 | 72 | |
| 20260902004204 | 76 | 325 | 0.0 | 0.0 | 0.00 | 0.00 | 0.00 | 71 | |
| 20260902003204 | 76 | 325 | 0.0 | 0.0 | 0.00 | 0.00 | 0.00 | 69 | |
| 20260902002204 | 78 | 325 | 0.0 | 0.0 | 0.00 | 0.00 | 0.00 | 67 | |
| 20260902001204 | 78 | 325 | 0.0 | 0.0 | 0.00 | 0.00 | 0.00 | 65 | |
| 20260902000204 | 79 | 325 | 0.0 | 1.0 | 0.00 | 0.00 | 0.00 | 63 | |
| 20260901235204 | 79 | 1 | 0.0 | 2.0 | 0.00 | 0.00 | 0.00 | 60 | |
| 20260901234205 | 79 | 6 | 0.0 | 2.0 | 0.00 | 0.00 | 0.00 | 60 | |
| 20260901233204 | 80 | 249 | 0.0 | 0.0 | 0.00 | 0.00 | 0.00 | 61 | |
| 20260901232204 | 80 | 249 | 0.0 | 0.0 | 0.00 | 0.00 | 0.00 | 60 | |
| 20260901231204 | 80 | 249 | 0.0 | 2.0 | 0.00 | 0.00 | 0.00 | 60 | |
| 20260901230204 | 80 | 196 | 0.0 | 2.0 | 0.00 | 0.00 | 0.00 | 59 | |
| 20260901225203 | 80 | 303 | 0.0 | 3.0 | 0.00 | 0.00 | 0.00 | 59 | |
| 20260901224203 | 80 | 260 | 1.0 | 3.0 | 0.00 | 0.00 | 0.00 | 58 | |
| 20260901223204 | 80 | 272 | 1.0 | 6.0 | 0.00 | 0.00 | 0.00 | 58 | |
| 20260901222204 | 80 | 253 | 1.0 | 6.0 | 0.00 | 0.00 | 0.00 | 58 | |
| 20260901221204 | 84 | 331 | 2.0 | 5.0 | 0.00 | 0.00 | 0.00 | 55 | |
| 20260901220204 | 84 | 216 | 1.0 | 5.0 | 0.00 | 0.00 | 0.00 | 54 | |
| 20260901215204 | 84 | 224 | 0.0 | 6.0 | 0.00 | 0.00 | 0.00 | 57 | |
| 20260901214204 | 83 | 237 | 2.0 | 5.0 | 0.00 | 0.00 | 0.00 | 62 | |
| 20260901213204 | 82 | 212 | 1.0 | 2.0 | 0.00 | 0.00 | 0.00 | 69 | |
| 20260901212204 | 82 | 303 | 1.0 | 2.0 | 0.00 | 0.00 | 0.00 | 69 | |
| 20260901211204 | 83 | 336 | 0.0 | 2.0 | 0.00 | 0.00 | 0.00 | 68 | |
| 20260901210205 | 84 | 154 | 1.0 | 3.0 | 0.00 | 0.00 | 0.00 | 64 | |
| 20260901205204 | 84 | 310 | 1.0 | 5.0 | 0.00 | 0.00 | 0.00 | 62 | |
| 20260901204204 | 85 | 288 | 1.0 | 5.0 | 0.00 | 0.00 | 0.00 | 62 | |
| 20260901203204 | 84 | 283 | 1.0 | 7.0 | 0.00 | 0.00 | 0.00 | 63 |